Вернуться в каталог

IRIDIUM 173

АктивенСвязьPO
NORAD 43925·PAYLOAD·🇺🇸 United States

Запущен Jan 11, 2019 с Vandenberg Space Force Base

Loading…

Ближайшие Пролёты (ближайшие 24 часа)

TLE

СвежийSource: CelesTrak SupGP

Эпоха: Sep 14, 2026, 20:45 UTC

1 43925C 19002D   26257.86493056 -.00001362  00000+0 -48681-3 0  2578
2 43925  86.3975 316.0974 0002326  95.4635  37.2109 14.34217669    14

Отслеживайте IRIDIUM 173 в реальном времени с AllMySat

Download on the App Store